Preview of NWS' New Version of Forecast
This preview is not operational and should not be used for support decisions.

Regional Weather Roundup (RWR)

Issued by National Weather Service (NWS)

                            
000
ASUS44 KMEG 181610
RWRTN 
TENNESSEE HOURLY STATE WEATHER ROUNDUP
NATIONAL WEATHER SERVICE MEMPHIS TN
1100 AM CDT THU APR 18 2019

TNZ002-004-019-021-049-052-054-088>092-181700-
WEST TENNESSEE
  
CITY           SKY/WX    TMP DP  RH WIND       PRES   REMARKS
MEMPHIS INTL   CLOUDY    68  62  81 CALM      29.77R                  
NWS MEMPHIS      N/A     67 N/A N/A MISG        N/A                   
JACKSON        CLOUDY    64  63  96 S6        29.77F FOG              
DYERSBURG      LGT RAIN  63  62  97 E3        29.76F FOG              
SOMERVILLE     CLOUDY    64  63  94 VRB7      29.76S FOG              
COVINGTON      CLOUDY    64  63  94 NW3       29.75S                  
UNION CITY     FOG       63  63 100 SE6       29.74F VSB 1            
BOLIVAR        CLOUDY    66  63  88 S8G14     29.77S FOG              
PARIS          PTSUNNY   64  61  88 S7        29.77F                  
HUNTINGDON     CLOUDY    64  63  94 S6        29.77S FOG              
LEXINGTON      CLOUDY    70  61  73 S10G17    29.77F                  
SELMER         CLOUDY    70  59  68 S14G22    29.77F                  
SAVANNAH       CLOUDY    70  61  73 S10G23    29.79S                  
$$

TNZ008-025-027-028-033-062-065-066-181700-
NORTH MIDDLE TENNESSEE
  
CITY           SKY/WX    TMP DP  RH WIND       PRES   REMARKS
NASHVILLE      CLOUDY    71  56  58 SW16G25   29.87F                  
DICKSON        PTSUNNY   70  57  64 S15G23    29.80F                  
CLARKSVILLE    FAIR      68  58  70 S12       29.79F                  
LEBANON        PTSUNNY   70  57  64 S14G29    29.85F                  
SMYRNA         CLOUDY    71  59  65 S13G20    29.88F                  
MURFREESBORO   PTSUNNY   72  57  60 S17G28    29.86                   
COOKEVILLE     PTSUNNY   73  54  49 SW17G24   29.90S                  
LIVINGSTON     SUNNY     72  54  53 SW23G30   29.87F                  
GALLATIN       PTSUNNY   72  57  60 S9G18     29.88F                  
CROSSVILLE     FAIR      69  55  60 S12G22    29.94F                  
ROCKWOOD       PTSUNNY   70  57  64 S16G25    29.94F                  
$$

TNZ061-075-076-078-094-096-097-181700-
SOUTH MIDDLE TENNESSEE
  
CITY           SKY/WX    TMP DP  RH WIND       PRES   REMARKS
LAWRENCEBURG   PTSUNNY   70  59  68 VRB7G16   29.85F                  
LEWISBURG      PTSUNNY   72  59  64 S15G25    29.88S                  
FAYETTEVILLE   CLOUDY    70  61  73 S14G23    29.90F                  
TULLAHOMA      CLOUDY    70  57  64 S13G28    29.91F                  
WINCHESTER     PTSUNNY   70  57  64 SW17G29   29.92F                  
MCMINNVILLE    PTSUNNY   73  55  53 S16G23    29.90F                  
COLUMBIA       PTSUNNY   72  63  73 S16G23    29.83F                  
SHELBYVILLE    CLOUDY    70  59  68 S22G30    29.90S                  
$$

TNZ017-018-042-046-047-181700-
NORTHEAST TENNESSEE
  
CITY           SKY/WX    TMP DP  RH WIND       PRES   REMARKS
TRI CITIES     FAIR      77  50  38 MISG      29.94F                  
ELIZABETHTON   FAIR      81  43  26 SW8G17    29.94F                  
GREENEVILLE    SUNNY     77  48  36 VRB7      29.93F                  
$$

TNZ012-013-036-069-073-074-181700-
CENTRAL EAST TENNESSEE
  
CITY           SKY/WX    TMP DP  RH WIND       PRES   REMARKS
KNOXVILLE      PTSUNNY   77  55  46 SW18G30   29.92S                  
OAK RIDGE      FAIR      76  54  46 S9G25     29.94S                  
DOWNTOWN KNOXV MOSUNNY   77  57  50 SW13G18   29.92F                  
GATLINBURG     SUNNY     77  55  47 N3        29.91F                  
MORRISTOWN     SUNNY     75  52  43 SW7       29.93F                  
JACKSBORO      PTSUNNY   75  55  50 SW23G30   29.95S                  
$$

TNZ083-085-099-181700-
SOUTHEAST TENNESSEE
  
CITY           SKY/WX    TMP DP  RH WIND       PRES   REMARKS
CHATTANOOGA    PTSUNNY   75  55  49 S16G25    29.94F                  
DAYTON         PTSUNNY   73  61  64 SW13      29.93F                  
$$

SKY/WX REPORTED AS FAIR MEANS FEW OR NO CLOUDS BELOW
12 THOUSAND FEET.